Weather Roundup
Issued by NWS Springfield, MO

Home | Current Version | Previous Version | Text Only | Print | Product List | Glossary On
Versions: 1 2 3 4 5 6 7 8 9 10 11 12 13 14 15 16 17 18 19 20 21 22 23 24 25 26 27 28 29 30 31 32 33 34 35 36 37 38 39 40 41 42 43 44 45 46 47 48 49 50
000
NZUS99 KSGF 211559
HRRSGF

HOURLY WEATHER
NATIONAL WEATHER SERVICE SPRINGFIELD MO
1100 AM CDT TUE OCT 21 2014

......SGF CWA......

CITY           SKY/WX    TMP DP  RH WIND       PRES   REMARKS
SPRINGFIELD    SUNNY     67  46  47 S6        30.14S
JOPLIN         SUNNY     65  59  81 CALM      30.15R
WEST PLAINS    SUNNY     66  47  50 SW6       30.15S
ROLLA          SUNNY     62  44  51 W6        30.13S
OSAGE BEACH    SUNNY     63  48  59 SW3       30.15S
BRANSON        SUNNY     66  64  94 CALM      30.16S

......SURROUNDING SGF CWA......

CITY           SKY/WX    TMP DP  RH WIND       PRES   REMARKS
CHANUTE        SUNNY     67  59  75 MISG      30.13S
PARSONS        MOSUNNY   67  62  84 VRB5      30.15R
COFFEYVILLE    SUNNY     63  60  90 CALM      30.13S
EMPORIA        SUNNY     65  53  65 S8        30.13S
ROGERS AR      CLOUDY    59  57  94 SE3       30.17S VSB 1
SILOAM SPRINGS SUNNY     63  55  77 SE3       30.17S
HARRISON AR    SUNNY     67  52  58 SE3       30.15S
NEAR YELLVILLE CLOUDY    55  52  88 CALM      30.16S VSB 1/2

......KANSAS AND MISSOURI......

CITY           SKY/WX    TMP DP  RH WIND       PRES   REMARKS
KANSAS CTY INT SUNNY     64  48  56 CALM      30.15R
DOWNTOWN KC    SUNNY     63  47  55 CALM      30.14S
COLUMBIA       SUNNY     66  47  50 CALM      30.13F
SEDALIA        SUNNY     66  44  45 NW5       30.15F
ST JOSEPH      SUNNY     61  47  59 MISG      30.14F
ST LOUIS       SUNNY     60  45  57 E5        30.14S
SPIRIT OF STL  SUNNY     59  48  67 CALM      30.14R
KIRKSVILLE     SUNNY     58  48  69 E7        30.16F
WICHITA        MOSUNNY   71  55  56 SE12      30.11S
TOPEKA         SUNNY     61  51  70 CALM      30.14S
OLATHE         SUNNY     67  47  48 CALM      30.13S

......TENNESSEE......

CITY           SKY/WX    TMP DP  RH WIND       PRES   REMARKS
MEMPHIS        SUNNY     72  48  42 N3        30.11S
NASHVILLE      SUNNY     67  47  48 NW6       30.08S

......ARKANSAS.......

CITY           SKY/WX    TMP DP  RH WIND       PRES   REMARKS
FAYETTEVILLE   SUNNY     56  33  42 CALM      30.16S
FT SMITH       SUNNY     68  59  73 E6        30.14S
LITTLE ROCK    SUNNY     71  54  54 E3        30.13S

......OKLAHOMA.......

CITY           SKY/WX    TMP DP  RH WIND       PRES   REMARKS
TULSA          MOSUNNY   69  62  78 SE7       30.11F
PONCA CITY     SUNNY     70  61  73 SE8       30.10S
MCALESTER      CLOUDY    71  61  70 CALM      30.13S
OKLAHOMA CITY  MOSUNNY   75  59  57 SW8       30.11R

......IOWA............

CITY           SKY/WX    TMP DP  RH WIND       PRES   REMARKS
DES MOINES     SUNNY     57  44  62 E7        30.16S
QUAD CITIES    SUNNY     54  41  61 E8        30.20R

......ILLINOIS........

CITY           SKY/WX    TMP DP  RH WIND       PRES   REMARKS
QUINCY         SUNNY     57  41  55 NE10      30.17R
CHICAGO        PTSUNNY   50  40  68 N15       30.17R




USA.gov is the U.S. government's official web portal to all federal, state and local government web resources and services.